Newark, OH

9:32 PM EST on February 10, 2016 (GMT -0500)
Newark Heath

Weather History for KVTA - May, 2014

Change the Weather History Date:

Friday, May 30, 2014

  Actual Average Record
Temperature  
Mean Temperature 67 °F -  
Max Temperature 81 °F 76 °F 91 °F (1953)
Min Temperature 55 °F 55 °F 35 °F (1947)
Cooling Degree Days 2    
Growing Degree Days 17 (Base 50)    
Moisture  
Dew Point 53 °F    
Average Humidity 67    
Maximum Humidity 83    
Minimum Humidity 35    
Precipitation  
Precipitation 0.00 in - - ()
Sea Level Pressure  
Sea Level Pressure 30.14 in    
Wind  
Wind Speed 5 mph (NE)    
Max Wind Speed 12 mph    
Max Gust Speed -    
Visibility 10 miles    
Events      
Averages and records for this station are not official NWS values.
T = Trace of Precipitation, MM = Missing Value Source: NWS Daily Summary

Daily Weather History Graph

Daily Weather History Graph

Search for Another Location

Airport or City:

Trip Planner

Search our weather history database for the weather conditions in past years. The results will help you decide how hot, cold, wet, or windy it might be!

Date:

Astronomy

May. 30, 2014 Rise Set
Actual Time 6:03 AM EDT 8:51 PM EDT
Civil Twilight 5:31 AM EDT 9:23 PM EDT
Nautical Twilight 4:51 AM EDT 10:03 PM EDT
Astronomical Twilight 4:05 AM EDT 10:49 PM EDT
Moon 7:47 AM EDT (5/30) 10:27 PM EDT (5/30)
Length of Visible Light 15h 51m
Length of Day
14h 47m
Waxing Crescent, 4% of the Moon is Illuminated
May 30
Waxing Crescent
Jun 5
First Quarter
Jun 13
Full
Jun 19
Last Quarter
Jun 27
New

Hourly Weather History & Observations

Time (EDT) Temp. Dew Point Humidity Pressure Visibility Wind Dir Wind Speed Gust Speed Precip Events Conditions
12:54 AM 62.1 °F 50.0 °F 65% 30.10 in 10.0 mi North 4.6 mph - N/A   Clear
1:54 AM 60.1 °F 50.0 °F 69% 30.10 in 10.0 mi NNE 4.6 mph - N/A   Clear
2:54 AM 59.0 °F 50.0 °F 72% 30.10 in 10.0 mi NNE 4.6 mph - N/A   Overcast
3:54 AM 57.0 °F 48.9 °F 74% 30.10 in 10.0 mi NNE 3.5 mph - N/A   Partly Cloudy
5:54 AM 55.0 °F 48.9 °F 80% 30.10 in 10.0 mi NE 3.5 mph - N/A   Clear
6:54 AM 55.0 °F 50.0 °F 83% 30.12 in 8.0 mi NE 3.5 mph - N/A   Clear
7:54 AM 57.0 °F 51.1 °F 81% 30.14 in 9.0 mi Variable 4.6 mph - N/A   Clear
8:54 AM 61.0 °F 53.1 °F 75% 30.15 in 10.0 mi NE 6.9 mph - N/A   Clear
9:54 AM 61.0 °F 54.0 °F 78% 30.17 in 10.0 mi ENE 11.5 mph - N/A   Scattered Clouds
10:01 AM 60.1 °F 53.1 °F 78% 30.19 in 10.0 mi ENE 10.4 mph - N/A   Mostly Cloudy
10:54 AM 61.0 °F 55.0 °F 81% 30.17 in 10.0 mi ENE 5.8 mph - N/A   Overcast
11:47 AM 64.0 °F 55.0 °F 73% 30.19 in 10.0 mi Variable 3.5 mph - N/A   Partly Cloudy
11:54 AM 66.0 °F 55.9 °F 70% 30.18 in 10.0 mi ENE 6.9 mph - N/A   Partly Cloudy
12:54 PM 70.0 °F 57.0 °F 63% 30.16 in 10.0 mi ESE 6.9 mph - N/A   Clear
2:54 PM 77.0 °F 55.0 °F 47% 30.14 in 10.0 mi ESE 10.4 mph - N/A   Clear
3:54 PM 79.0 °F 53.1 °F 40% 30.12 in 10.0 mi ENE 8.1 mph - N/A   Clear
6:54 PM 78.1 °F 48.0 °F 35% 30.10 in 10.0 mi NE 8.1 mph - N/A   Clear
7:54 PM 77.0 °F 50.0 °F 39% 30.11 in 10.0 mi ENE 5.8 mph - N/A   Clear
8:54 PM 71.1 °F 52.0 °F 51% 30.12 in 10.0 mi Calm Calm - N/A   Clear
9:54 PM 64.9 °F 55.9 °F 73% 30.14 in 10.0 mi Calm Calm - N/A   Clear
10:54 PM 62.1 °F 55.0 °F 78% 30.16 in 10.0 mi Calm Calm - N/A   Clear
11:54 PM 62.1 °F 55.0 °F 78% 30.17 in 10.0 mi NE 3.5 mph - N/A   Clear